This demonstration page uses our WeatherBlox Daily Observations layout. Learn more.

41.55636, -103.73856

Hourly Observations for January 9, 2020

Temp ( °F °C ) Dew Point ( °F °C ) Humidity (%) Winds ( mph kmh ) Pressure ( in mb ) Visibility ( mi km ) Precip ( " mm )
12:58 am 00:58 Clear 34 1.1 24 -4.6 66 66 S 3 6 29.64 1004 10 16.0934 0 0
1:58 am 01:58 Mostly Cloudy 37 2.7 22 -5.4 56 56 Calm 29.64 1004 10 16.0934 0 0
2:58 am 02:58 Mostly Cloudy 36 2.1 20 -6.8 52 52 WNW 9 15 29.64 1004 10 16.0934 0 0
3:58 am 03:58 Mostly Cloudy 38 3.5 20 -6.8 47 47 WNW 22 35 29.61 1003 10 16.0934 0 0
4:58 am 04:58 Partly Cloudy 34 1.3 22 -5.7 60 60 W 17 28 29.62 1003 10 16.0934 0 0
5:58 am 05:58 Mostly Cloudy 35 1.8 23 -5.2 60 60 WNW 15 24 29.62 1003 10 16.0934 0 0
6:58 am 06:58 Mostly Cloudy 35 1.5 22 -5.4 61 61 WNW 14 22 29.62 1003 10 16.0934 0 0
7:58 am 07:58 Mostly Clear 33 0.6 21 -6.2 61 61 WNW 12 19 29.62 1003 10 16.0934 0 0
8:58 am 08:58 Clear 33 0.4 20 -6.9 58 58 WNW 18 30 29.65 1004 10 16.0934 0 0
9:58 am 09:58 Clear 31 -0.6 19 -7.2 61 61 WNW 20 31 29.7 1006 10 16.0934 0 0
10:58 am 10:58 Clear 30 -0.9 17 -8.2 58 58 WNW 17 28 29.75 1007 10 16.0934 0 0
11:58 am 11:58 Clear 28 -2 17 -8.1 63 63 NW 17 28 29.8 1009 10 16.0934 0 0
12:58 pm 12:58 Clear 26 -3.2 17 -8.6 67 67 NW 12 19 29.83 1010 10 16.0934 0 0
1:58 pm 13:58 Clear 27 -3 16 -8.8 65 65 NW 14 22 29.82 1010 10 16.0934 0 0
2:58 pm 14:58 Sunny 26 -3.5 16 -8.8 67 67 NW 14 22 29.83 1010 10 16.0934 0 0
3:56 pm 15:56 Sunny 29 -1.4 17 -8.1 61 61 W 6 9 29.86 1011 10 16.0934 0 0
4:56 pm 16:56 Sunny 33 0.7 17 -8.5 51 51 Calm 29.91 1013 10 16.0934 0 0
5:56 pm 17:56 Sunny 36 2.1 15 -9.6 42 42 WNW 15 24 29.87 1012 10 16.0934 0 0
6:56 pm 18:56 Sunny 41 5 11 -11.5 29 29 NW 22 35 29.82 1010 10 16.0934 0 0
7:56 pm 19:56 Sunny 42 5.7 8 -13.5 24 24 NW 18 30 29.79 1009 10 16.0934 0 0
8:58 pm 20:58 Sunny 42 5.8 7 -14 23 23 WNW 16 26 29.79 1009 10 16.0934 0 0
9:58 pm 21:58 Sunny 42 5.6 10 -12.5 26 26 WNW 13 20 29.79 1009 10 16.0934 0 0
11:58 pm 23:58 Clear 36 2.2 12 -11.2 37 37 W 3 6 29.88 1012 10 16.0934 0 0

Powered by AerisWeather